Central Dewitt Jim Hetrick Invitational 2020 vs Central Dewitt Jim Hetrick Invitational 2018

Aggregate Data Points
Difference This Meet That Meet
Overall Athletes -131 415 546
Overall Average +5.65 23:11.87 23:06.22
1st-10th Place -12.48 17:05.58 17:18.06
1st-25th Place -3.66 17:32.70 17:36.35
1st-50th Place +2.14 18:02.38 18:00.25
1st-100th Place +10.36 18:47.63 18:37.27
Common Athletes -- -- 78
Ran Faster 52 65 13
Ran Season Best -19 16 35
Average Time -59.51 21:26.86 22:26.36
Median Time -1:02.73 21:05.87 22:08.60
Middle 80% Times -1:02.71 21:13.76 22:16.48
Top 10% Times -37.24 17:22.86 18:00.10
Top 25% Times -47.48 18:00.86 18:48.34
Top 50% Times -53.28 18:58.38 19:51.66
Bottom 50% Times -1:05.74 23:55.33 25:01.07
Bottom 25% Times -54.29 25:48.95 26:43.24
Bottom 10% Times -55.82 27:46.08 28:41.90
Average Difference -59.51 -- --
Median Difference +1:20.97 -- --
Middle 80% Difference -59.28 -- --
Top 10% Difference -26.69 -- --
Top 50% Difference -48.34 -- --
Top 25% Difference -45.43 -- --
Top 50% Difference -48.34 -- --
Bottom 50% Difference -1:10.67 -- --
Bottom 25% Difference -1:07.16 -- --
Bottom 10% Difference -1:39.91 -- --

Performances of Common Athletes
Athlete Team Difference This Meet That Meet
Chase Knoche Calamus-Wheatland High School -44.49 16:32.31 17:16.80
Dylan Darsidan Camanche High School -25.54 16:42.86 17:08.40
Jasper Nietert Monticello High School -1:34.00 17:02.80 18:36.80
Magnus Sands Calamus-Wheatland High School -44.59 17:35.21 18:19.80
Jackson Hessel Davenport West High School -0.60 17:40.60 17:41.20
Sam Gordon Muscatine High School -50.81 17:42.79 18:33.60
Aiden Armstrong Muscatine High School -24.03 17:52.87 18:16.90
Carter Kurt Monticello High School -1:10.46 17:53.44 19:03.90
Aiden Bowser Davenport North High School -2:29.22 17:58.28 20:27.50
Thomas Machande Northeast -2:09.10 18:00.20 20:09.30
Logan Kirchner Muscatine High School -18.90 18:00.30 18:19.20
Kyle Hopewell Davenport Central High School -54.61 18:19.99 19:14.60
Carter Sullivan Davenport Central High School -4.55 18:20.35 18:24.90
Aidan Daufeldt Muscatine High School -1:56.79 18:27.71 20:24.50
Joel Larue Muscatine High School -37.71 18:29.59 19:07.30
Trevor Diedrichs Muscatine High School -16.85 18:30.35 18:47.20
Jace Rathje Northeast -1:25.92 18:43.18 20:09.10
Luke Haugen Davenport North High School -1:13.74 18:45.76 19:59.50
Seth Beuthien Calamus-Wheatland High School -30.01 18:49.29 19:19.30
Nathan Ketelsen Northeast -35.90 18:49.30 19:25.20
Landon Adkins Davenport Central High School -17.83 18:55.47 19:13.30
Joe Hasken Northeast +1:58.35 21:00.75 19:02.40
Jayden Orcutt Monticello High School -48.92 19:18.48 20:07.40
Zebediah Cox Northeast -2:47.45 19:21.15 22:08.60
Lucas Goble Camanche High School -14:37.03 19:21.67 33:58.70
Jackson Kutka Central Clinton High School -1:03.62 19:23.38 20:27.00
Paxton Foor Muscatine High School -1:22.43 19:26.67 20:49.10
Jackson Richter Davenport Central High School -35.12 19:41.28 20:16.40
Laney Fitzpatrick Assumption High School -1:52.19 19:50.41 21:42.60
Patrick Devine Davenport West High School -26.01 19:52.29 20:18.30
Eamon Garton Davenport Central High School -1:21.27 20:02.63 21:23.90
Levi Temple Monticello High School -56.57 20:03.73 21:00.30
Erlin Bell Monticello High School -3:57.99 20:11.11 24:09.10
Ethan Jackson Davenport North High School -1:13.85 20:13.85 21:27.70
Skylar Hoffman Assumption High School -1:04.66 20:26.54 21:31.20
Kyler Sparks Davenport West High School -3:01.37 20:28.33 23:29.70
Wyatt Sailer Central Clinton High School -49.27 20:35.73 21:25.00
Lois Blackman Davenport Central High School -1:12.56 20:35.84 21:48.40
Morgan Jennings Assumption High School +25.46 21:12.06 20:46.60
Kyler Earl Davenport North High School +1:20.97 22:08.87 20:47.90
Blake Gerard Central Clinton High School +44.22 21:33.52 20:49.30
Karle Kramer Monticello High School -21.54 20:50.36 21:11.90
Hunter Manatt Central Clinton High School -1:38.33 21:05.87 22:44.20
Adrienne Theisen Assumption High School -2:21.15 21:10.35 23:31.50
Nathan Oswald Monticello High School -1:41.30 21:11.80 22:53.10
Logan Hansen Central Clinton High School -1:31.45 21:25.05 22:56.50
Noah Webber Monticello High School -2:41.85 21:37.45 24:19.30
Lydia Recker Monticello High School +7.68 21:48.68 21:41.00
Nicole Carmona Assumption High School -1:36.15 21:44.25 23:20.40
Triniti Etzel Monticello High School -3:53.04 21:54.46 25:47.50
Logan Moss Davenport North High School -2:33.85 22:01.45 24:35.30
Madison Anglese Prince of Peace Prep High School -2:56.11 22:02.49 24:58.60
Dominik Chally Monticello High School -35.32 22:06.68 22:42.00
Grace Schneiderman Davenport West High School +3:10.25 25:26.65 22:16.40
Joseph Goldermann Assumption High School -59.13 22:21.77 23:20.90
Sophie Griffin Prince of Peace Prep High School -5.05 22:41.85 22:46.90
Evan Christof Easton Valley High School -2:47.09 22:43.81 25:30.90
Koal Bossom Central Clinton High School -26.05 22:45.35 23:11.40
Addison Michel Maquoketa High School +22.42 23:09.82 22:47.40
Ava Ruden Prince of Peace Prep High School +9.16 23:06.16 22:57.00
Nate Mirocha Davenport Central High School -50.44 23:03.06 23:53.50
Ally Kersten Assumption High School -1:16.24 23:34.06 24:50.30
Nariah Einfeldt Muscatine High School +1:37.18 25:15.48 23:38.30
Rachel Wildemuth Davenport West High School -9.85 24:08.05 24:17.90
Mia Mccrery Davenport Central High School +4:17.32 28:29.32 24:12.00
Evan Meyer Easton Valley High School -2:03.33 24:34.57 26:37.90
Jordan Snarr Davenport North High School -1:25.41 24:44.19 26:09.60
Mackenzie Kaperka Davenport North High School -4.51 24:54.29 24:58.80
Faith Hansen Monticello High School -2:31.61 25:04.09 27:35.70
Abigail Stamler Muscatine High School -17.64 25:04.96 25:22.60
Marcus Sunlin Monticello High School -1:45.65 25:08.05 26:53.70
Annabelle Schneider Central Clinton High School -30.10 25:44.00 26:14.10
Maddie Stadtmueller Monticello High School +24.16 26:16.06 25:51.90
Grace Mosier Central Clinton High School -18.30 25:52.40 26:10.70
Savanah Meyne Central Clinton High School -19.78 26:52.42 27:12.20
Nastasia Posey Davenport Central High School +2:10.44 29:50.74 27:40.30
Keira Kreuzenstein Muscatine High School +25.66 29:43.56 29:17.90
Kehde Campbell Monticello High School -58.64 29:20.16 30:18.80